This is the latest recevied weather packets stored in our database for station/object EA8EE-7. If no packets are shown the sender has not sent any weather packets the latest 10 day(s).
| Time | Temp. | Humidity | Pressure | Rain* | Wind** | Luminosity | Snow |
|---|---|---|---|---|---|---|---|
| 1788619841 | 35.56° C | 28% | 1025.6 hPa | - | - | - | - |
| 1788619241 | 36.11° C | 28% | 1026.1 hPa | - | - | - | - |
| 1788618641 | 35.56° C | 28% | 1026.9 hPa | - | - | - | - |
| 1788618041 | 35° C | 30% | 1027.7 hPa | - | - | - | - |
| 1788617441 | 35° C | 30% | 1025.9 hPa | - | - | - | - |
| 1788616840 | 35° C | 30% | 1025.8 hPa | - | - | - | - |
| 1788616241 | 35° C | 30% | 1026.6 hPa | - | - | - | - |
| 1788615668 | 35° C | 30% | 1027.4 hPa | - | - | - | - |
| 1788615040 | 35° C | 30% | 1026.6 hPa | - | - | - | - |
| 1788614440 | 35° C | 30% | 1025.4 hPa | - | - | - | - |
| 1788613840 | 35° C | 30% | 1023.4 hPa | - | - | - | - |
| 1788613240 | 35.56° C | 30% | 1023 hPa | - | - | - | - |
| 1788612640 | 35.56° C | 31% | 1026.2 hPa | - | - | - | - |
| 1788612040 | 35.56° C | 31% | 1027.4 hPa | - | - | - | - |
| 1788611297 | 35.56° C | 32% | 1027.6 hPa | - | - | - | - |
| 1788610097 | 36.11° C | 32% | 1029.6 hPa | - | - | - | - |
| 1788609497 | 36.11° C | 32% | 1030.4 hPa | - | - | - | - |
| 1788608864 | 36.67° C | 32% | 1027.3 hPa | - | - | - | - |
| 1788608264 | 36.67° C | 33% | 1028.1 hPa | - | - | - | - |
| 1788607664 | 36.67° C | 33% | 1025.7 hPa | - | - | - | - |
| 1788607064 | 36.67° C | 33% | 1024.4 hPa | - | - | - | - |
| 1788606464 | 35.56° C | 34% | 1026.3 hPa | - | - | - | - |
| 1788605864 | 35° C | 35% | 1026.5 hPa | - | - | - | - |
| 1788605264 | 35° C | 35% | 1027.1 hPa | - | - | - | - |
| 1788604664 | 35° C | 36% | 1027.4 hPa | - | - | - | - |
* Rain since midnight (hover to see other rain measurements)
** Current wind speed in m/s (hover to see current wind gust speed)